Miscellaneous Local Product
Issued by NWS Hastings, NE

Home | Current Version | Previous Version | Text Only | Print | Product List | Glossary Off
Versions: 1 2 3 4 5 6 7 8 9 10 11 12 13 14 15 16 17 18 19 20 21 22 23 24 25 26 27 28 29 30 31 32 33 34 35 36 37 38 39 40 41 42 43 44 45 46 47 48 49 50

562
AXUS43 KGID 231102
MISGRI

GID CWA HOURLY WEATHER ROUNDUP
NATIONAL WEATHER SERVICE HASTINGS NE
600 AM CDT SAT JUL 23 2016

NOTE: "FAIR" INDICATES FEW OR NO CLOUDS BELOW 12,000 FEET WITH NO
SIGNIFICANT WEATHER AND/OR OBSTRUCTIONS TO VISIBILITY.

...SOUTH CENTRAL NEBRASKA...

CITY           SKY/WX    TMP DP  RH WIND       PRES   REMARKS
GRAND ISLAND   MOCLDY    72  68  87 SE5       29.85F
HASTINGS       MOCLDY    72  67  84 S8        29.89F
KEARNEY        CLOUDY    72  66  83 SW7       29.85F
ORD            CLOUDY    72  66  81 W15       29.83F
YORK           CLOUDY    73  70  88 CALM      29.88F
AURORA         MOCLDY    72  70  93 SE8       29.86F
LEXINGTON      CLOUDY    71  67  86 S7        29.89S
HOLDREGE       CLOUDY    75  64  69 S8        29.89F
HEBRON         CLOUDY    77  69  77 SW7       29.92F THUNDER

...NEBRASKA PANHANDLE...

CITY           SKY/WX    TMP DP  RH WIND       PRES   REMARKS
CHADRON        CLEAR     67  62  84 S5        29.87F
ALLIANCE       CLOUDY    63  61  93 S3        29.93F
SCOTTSBLUFF    CLOUDY    61  59  93 NW8       29.95S
SIDNEY         CLOUDY    69  62  78 SW10      30.00F

...WESTERN AND NORTH CENTRAL NEBRASKA...

CITY           SKY/WX    TMP DP  RH WIND       PRES   REMARKS
VALENTINE      CLOUDY    70  64  81 VRB3      29.87F
AINSWORTH      CLOUDY    69  66  92 W6        29.88S
ONEILL         MOCLDY    71  68  89 CALM      29.82F
BROKEN BOW     CLOUDY    69  66  90 SW5       29.85F
IMPERIAL       CLOUDY    71  64  78 CALM      29.92S
NORTH PLATTE   CLOUDY    68  66  93 E7        29.87F
MCCOOK         CLOUDY    73  65  75 SE10      29.88F

...EASTERN NEBRASKA...

CITY           SKY/WX    TMP DP  RH WIND       PRES   REMARKS
NORFOLK        CLOUDY    74  69  85 CALM      29.78F
SO SIOUX CITY  CLOUDY    81  76  84 S7        29.83F
TEKAMAH        LGT RAIN  79  74  84 SE9       29.86F
COLUMBUS       CLOUDY    73  66  78 SE5       29.86S
ALBION         CLOUDY    71  68  90 SE8       29.83R
OMAHA EPPLEY   HVY RAIN  82  72  71 S14       29.87R
OFFUTT AFB     CLOUDY    82  70  65 S15       29.88R
MILLARD        CLOUDY    83  72  67 S7        29.87F
LINCOLN        CLOUDY    80  71  74 S10       29.88F
NEBRASKA CITY  MOCLDY    78  67  68 SW14      29.92R
BEATRICE       LGT RAIN  79  69  72 SW7       29.91R
FALLS CITY     CLOUDY    82  72  71 S8        29.91S

...NORTHERN KANSAS...

CITY           SKY/WX    TMP DP  RH WIND       PRES   REMARKS
GOODLAND       CLOUDY    68  64  87 SE10      29.96S
HILL CITY      LGT RAIN  73  68  84 SE6       29.97S
NORTON         LGT RAIN  70  63  78 SE10      29.88F
SMITH CENTER   CLEAR     73  68  83 E8        29.93S
BELOIT         MOCLDY    73  70  88 SE8       29.91F
HAYS           CLOUDY    79  63  57 CALM      29.96S
RUSSELL        CLOUDY    79  62  56 SW5       29.94F
CONCORDIA      MOCLDY    72  69  90 SE8       29.93F
SALINA         CLOUDY    83  65  54 NW15      29.96R
TOPEKA         CLOUDY    82  70  66 VRB5      29.92S



USA.gov is the U.S. government's official web portal to all federal, state and local government web resources and services.